Year,Month,Day,Hour,Minute,Value (Times are PST for temperature in C)
2017,05,27,00,00,16.10
2017,05,27,00,01,16.10
2017,05,27,00,02,16.00
2017,05,27,00,03,16.00
2017,05,27,00,04,16.00
2017,05,27,00,05,16.00
2017,05,27,00,06,16.00
2017,05,27,00,07,15.90
2017,05,27,00,08,15.90
2017,05,27,00,09,15.90
2017,05,27,00,10,15.90
2017,05,27,00,11,15.90
2017,05,27,00,12,15.90
2017,05,27,00,13,15.80
2017,05,27,00,14,15.80
2017,05,27,00,15,15.80
2017,05,27,00,16,15.80
2017,05,27,00,17,15.80
2017,05,27,00,18,15.80
2017,05,27,00,19,15.80
2017,05,27,00,20,15.80
2017,05,27,00,21,15.80
2017,05,27,00,22,15.70
2017,05,27,00,23,15.70
2017,05,27,00,24,15.70
2017,05,27,00,25,15.70
2017,05,27,00,26,15.70
2017,05,27,00,27,15.70
2017,05,27,00,28,15.70
2017,05,27,00,29,15.60
2017,05,27,00,30,15.60
2017,05,27,00,31,15.60
2017,05,27,00,32,15.60
2017,05,27,00,33,15.60
2017,05,27,00,34,15.60
2017,05,27,00,35,15.60
2017,05,27,00,36,15.60
2017,05,27,00,37,15.50
2017,05,27,00,38,15.50
2017,05,27,00,39,15.50
2017,05,27,00,40,15.50
2017,05,27,00,41,15.50
2017,05,27,00,42,15.40
2017,05,27,00,43,15.40
2017,05,27,00,44,15.40
2017,05,27,00,45,15.40
2017,05,27,00,46,15.40
2017,05,27,00,47,15.30
2017,05,27,00,48,15.30
2017,05,27,00,49,15.30
2017,05,27,00,50,15.20
2017,05,27,00,51,15.20
2017,05,27,00,52,15.20
2017,05,27,00,53,15.20
2017,05,27,00,54,15.10
2017,05,27,00,55,15.10
2017,05,27,00,56,15.10
2017,05,27,00,57,15.10
2017,05,27,00,58,15.00
2017,05,27,00,59,15.00
2017,05,27,01,00,15.00
2017,05,27,01,01,15.00
2017,05,27,01,02,14.90
2017,05,27,01,03,14.90
2017,05,27,01,04,14.90
2017,05,27,01,05,14.90
2017,05,27,01,06,14.90
2017,05,27,01,07,14.80
2017,05,27,01,08,14.80
2017,05,27,01,09,14.80
2017,05,27,01,10,14.80
2017,05,27,01,11,14.80
2017,05,27,01,12,14.80
2017,05,27,01,13,14.80
2017,05,27,01,14,14.80
2017,05,27,01,15,14.80
2017,05,27,01,16,14.80
2017,05,27,01,17,14.80
2017,05,27,01,18,14.80
2017,05,27,01,19,14.80
2017,05,27,01,20,14.80
2017,05,27,01,21,14.80
2017,05,27,01,22,14.80
2017,05,27,01,23,14.80
2017,05,27,01,24,14.80
2017,05,27,01,25,14.80
2017,05,27,01,26,14.80
2017,05,27,01,27,14.80
2017,05,27,01,28,14.80
2017,05,27,01,29,14.80
2017,05,27,01,30,14.80
2017,05,27,01,31,14.80
2017,05,27,01,32,14.70
2017,05,27,01,33,14.60
2017,05,27,01,34,14.60
2017,05,27,01,35,14.50
2017,05,27,01,36,14.40
2017,05,27,01,37,14.40
2017,05,27,01,38,14.40
2017,05,27,01,39,14.30
2017,05,27,01,40,14.30
2017,05,27,01,41,14.30
2017,05,27,01,42,14.30
2017,05,27,01,43,14.20
2017,05,27,01,44,14.20
2017,05,27,01,45,14.20
2017,05,27,01,46,14.20
2017,05,27,01,47,14.20
2017,05,27,01,48,14.20
2017,05,27,01,49,14.20
2017,05,27,01,50,14.20
2017,05,27,01,51,14.20
2017,05,27,01,52,14.20
2017,05,27,01,53,14.20
2017,05,27,01,54,14.20
2017,05,27,01,55,14.20
2017,05,27,01,56,14.20
2017,05,27,01,57,14.20
2017,05,27,01,58,14.20
2017,05,27,01,59,14.20
2017,05,27,02,00,14.30
2017,05,27,02,01,14.30
2017,05,27,02,02,14.30
2017,05,27,02,03,14.30
2017,05,27,02,04,14.40
2017,05,27,02,05,14.40
2017,05,27,02,06,14.40
2017,05,27,02,07,14.40
2017,05,27,02,08,14.40
2017,05,27,02,09,14.40
2017,05,27,02,10,14.40
2017,05,27,02,11,14.40
2017,05,27,02,12,14.40
2017,05,27,02,13,14.40
2017,05,27,02,14,14.40
2017,05,27,02,15,14.40
2017,05,27,02,16,14.40
2017,05,27,02,17,14.40
2017,05,27,02,18,14.40
2017,05,27,02,19,14.40
2017,05,27,02,20,14.40
2017,05,27,02,21,14.40
2017,05,27,02,22,14.40
2017,05,27,02,23,14.40
2017,05,27,02,24,14.30
2017,05,27,02,25,14.30
2017,05,27,02,26,14.30
2017,05,27,02,27,14.30
2017,05,27,02,28,14.30
2017,05,27,02,29,14.30
2017,05,27,02,30,14.20
2017,05,27,02,31,14.20
2017,05,27,02,32,14.20
2017,05,27,02,33,14.10
2017,05,27,02,34,14.10
2017,05,27,02,35,14.10
2017,05,27,02,36,14.10
2017,05,27,02,37,14.10
2017,05,27,02,38,14.00
2017,05,27,02,39,14.00
2017,05,27,02,40,14.00
2017,05,27,02,41,14.00
2017,05,27,02,42,14.00
2017,05,27,02,43,13.90
2017,05,27,02,44,13.90
2017,05,27,02,45,13.90
2017,05,27,02,46,13.90
2017,05,27,02,47,13.80
2017,05,27,02,48,13.80
2017,05,27,02,49,13.80
2017,05,27,02,50,13.70
2017,05,27,02,51,13.70
2017,05,27,02,52,13.70
2017,05,27,02,53,13.60
2017,05,27,02,54,13.60
2017,05,27,02,55,13.50
2017,05,27,02,56,13.50
2017,05,27,02,57,13.50
2017,05,27,02,58,13.40
2017,05,27,02,59,13.40
2017,05,27,03,00,13.30
2017,05,27,03,01,13.30
2017,05,27,03,02,13.30
2017,05,27,03,03,13.30
2017,05,27,03,04,13.20
2017,05,27,03,05,13.20
2017,05,27,03,06,13.20
2017,05,27,03,07,13.10
2017,05,27,03,08,13.10
2017,05,27,03,09,13.10
2017,05,27,03,10,13.00
2017,05,27,03,11,13.00
2017,05,27,03,12,13.00
2017,05,27,03,13,13.00
2017,05,27,03,14,12.90
2017,05,27,03,15,12.90
2017,05,27,03,16,12.90
2017,05,27,03,17,12.90
2017,05,27,03,18,12.90
2017,05,27,03,19,12.90
2017,05,27,03,20,12.90
2017,05,27,03,21,12.90
2017,05,27,03,22,12.90
2017,05,27,03,23,12.90
2017,05,27,03,24,12.90
2017,05,27,03,25,12.90
2017,05,27,03,26,12.80
2017,05,27,03,27,12.80
2017,05,27,03,28,12.80
2017,05,27,03,29,12.80
2017,05,27,03,30,12.80
2017,05,27,03,31,12.80
2017,05,27,03,32,12.80
2017,05,27,03,33,12.80
2017,05,27,03,34,12.80
2017,05,27,03,35,12.80
2017,05,27,03,36,12.80
2017,05,27,03,37,12.70
2017,05,27,03,38,12.70
2017,05,27,03,39,12.70
2017,05,27,03,40,12.70
2017,05,27,03,41,12.70
2017,05,27,03,42,12.60
2017,05,27,03,43,12.60
2017,05,27,03,44,12.60
2017,05,27,03,45,12.60
2017,05,27,03,46,12.50
2017,05,27,03,47,12.50
2017,05,27,03,48,12.50
2017,05,27,03,49,12.50
2017,05,27,03,50,12.50
2017,05,27,03,51,12.50
2017,05,27,03,52,12.50
2017,05,27,03,53,12.50
2017,05,27,03,54,12.40
2017,05,27,03,55,12.50
2017,05,27,03,56,12.50
2017,05,27,03,57,12.50
2017,05,27,03,58,12.50
2017,05,27,03,59,12.50
2017,05,27,04,00,12.50
2017,05,27,04,01,12.50
2017,05,27,04,02,12.50
2017,05,27,04,03,12.50
2017,05,27,04,04,12.60
2017,05,27,04,05,12.60
2017,05,27,04,06,12.60
2017,05,27,04,07,12.60
2017,05,27,04,08,12.60
2017,05,27,04,09,12.60
2017,05,27,04,10,12.60
2017,05,27,04,11,12.60
2017,05,27,04,12,12.60
2017,05,27,04,13,12.60
2017,05,27,04,14,12.60
2017,05,27,04,15,12.60
2017,05,27,04,16,12.60
2017,05,27,04,17,12.60
2017,05,27,04,18,12.60
2017,05,27,04,19,12.60
2017,05,27,04,20,12.60
2017,05,27,04,21,12.60
2017,05,27,04,22,12.50
2017,05,27,04,23,12.50
2017,05,27,04,24,12.50
2017,05,27,04,25,12.50
2017,05,27,04,26,12.50
2017,05,27,04,27,12.50
2017,05,27,04,28,12.50
2017,05,27,04,29,12.40
2017,05,27,04,30,12.40
2017,05,27,04,31,12.40
2017,05,27,04,32,12.40
2017,05,27,04,33,12.40
2017,05,27,04,34,12.40
2017,05,27,04,35,12.40
2017,05,27,04,36,12.40
2017,05,27,04,37,12.40
2017,05,27,04,38,12.40
2017,05,27,04,39,12.40
2017,05,27,04,40,12.40
2017,05,27,04,41,12.40
2017,05,27,04,42,12.40
2017,05,27,04,43,12.40
2017,05,27,04,44,12.40
2017,05,27,04,45,12.40
2017,05,27,04,46,12.40
2017,05,27,04,47,12.30
2017,05,27,04,48,12.30
2017,05,27,04,49,12.30
2017,05,27,04,50,12.30
2017,05,27,04,51,12.30
2017,05,27,04,52,12.20
2017,05,27,04,53,12.20
2017,05,27,04,54,12.20
2017,05,27,04,55,12.20
2017,05,27,04,56,12.20
2017,05,27,04,57,12.20
2017,05,27,04,58,12.20
2017,05,27,04,59,12.20
2017,05,27,05,00,12.20
2017,05,27,05,01,12.10
2017,05,27,05,02,12.10
2017,05,27,05,03,12.10
2017,05,27,05,04,12.10
2017,05,27,05,05,12.10
2017,05,27,05,06,12.10
2017,05,27,05,07,12.10
2017,05,27,05,08,12.10
2017,05,27,05,09,12.10
2017,05,27,05,10,12.10
2017,05,27,05,11,12.10
2017,05,27,05,12,12.10
2017,05,27,05,13,12.10
2017,05,27,05,14,12.10
2017,05,27,05,15,12.10
2017,05,27,05,16,12.10
2017,05,27,05,17,12.10
2017,05,27,05,18,12.10
2017,05,27,05,19,12.10
2017,05,27,05,20,12.10
2017,05,27,05,21,12.10
2017,05,27,05,22,12.10
2017,05,27,05,23,12.00
2017,05,27,05,24,12.00
2017,05,27,05,25,12.00
2017,05,27,05,26,12.00
2017,05,27,05,27,12.00
2017,05,27,05,28,12.00
2017,05,27,05,29,12.10
2017,05,27,05,30,12.10
2017,05,27,05,31,12.10
2017,05,27,05,32,12.10
2017,05,27,05,33,12.10
2017,05,27,05,34,12.10
2017,05,27,05,35,12.10
2017,05,27,05,36,12.10
2017,05,27,05,37,12.10
2017,05,27,05,38,12.10
2017,05,27,05,39,12.10
2017,05,27,05,40,12.20
2017,05,27,05,41,12.20
2017,05,27,05,42,12.20
2017,05,27,05,43,12.20
2017,05,27,05,44,12.30
2017,05,27,05,45,12.30
2017,05,27,05,46,12.30
2017,05,27,05,47,12.30
2017,05,27,05,48,12.30
2017,05,27,05,49,12.40
2017,05,27,05,50,12.40
2017,05,27,05,51,12.40
2017,05,27,05,52,12.40
2017,05,27,05,53,12.40
2017,05,27,05,54,12.40
2017,05,27,05,55,12.50
2017,05,27,05,56,12.50
2017,05,27,05,57,12.50
2017,05,27,05,58,12.50
2017,05,27,05,59,12.60
2017,05,27,06,00,12.60
2017,05,27,06,01,12.60
2017,05,27,06,02,12.60
2017,05,27,06,03,12.60
2017,05,27,06,04,12.60
2017,05,27,06,05,12.60
2017,05,27,06,06,12.60
2017,05,27,06,07,12.60
2017,05,27,06,08,12.60
2017,05,27,06,09,12.60
2017,05,27,06,10,12.60
2017,05,27,06,11,12.60
2017,05,27,06,12,12.60
2017,05,27,06,13,12.60
2017,05,27,06,14,12.60
2017,05,27,06,15,12.60
2017,05,27,06,16,12.60
2017,05,27,06,17,12.60
2017,05,27,06,18,12.60
2017,05,27,06,19,12.60
2017,05,27,06,20,12.60
2017,05,27,06,21,12.60
2017,05,27,06,22,12.60
2017,05,27,06,23,12.60
2017,05,27,06,24,12.60
2017,05,27,06,25,12.60
2017,05,27,06,26,12.60
2017,05,27,06,27,12.60
2017,05,27,06,28,12.60
2017,05,27,06,29,12.60
2017,05,27,06,30,12.60
2017,05,27,06,31,12.60
2017,05,27,06,32,12.60
2017,05,27,06,33,12.60
2017,05,27,06,34,12.60
2017,05,27,06,35,12.60
2017,05,27,06,36,12.60
2017,05,27,06,37,12.60
2017,05,27,06,38,12.60
2017,05,27,06,39,12.60
2017,05,27,06,40,12.60
2017,05,27,06,41,12.60
2017,05,27,06,42,12.60
2017,05,27,06,43,12.60
2017,05,27,06,44,12.60
2017,05,27,06,45,12.70
2017,05,27,06,46,12.70
2017,05,27,06,47,12.70
2017,05,27,06,48,12.70
2017,05,27,06,49,12.80
2017,05,27,06,50,12.80
2017,05,27,06,51,12.90
2017,05,27,06,52,12.90
2017,05,27,06,53,13.00
2017,05,27,06,54,13.10
2017,05,27,06,55,13.10
2017,05,27,06,56,13.20
2017,05,27,06,57,13.20
2017,05,27,06,58,13.30
2017,05,27,06,59,13.40
2017,05,27,07,00,13.40
2017,05,27,07,01,13.50
2017,05,27,07,02,13.60
2017,05,27,07,03,13.70
2017,05,27,07,04,13.70
2017,05,27,07,05,13.80
2017,05,27,07,06,13.90
2017,05,27,07,07,14.00
2017,05,27,07,08,14.10
2017,05,27,07,09,14.10
2017,05,27,07,10,14.20
2017,05,27,07,11,14.30
2017,05,27,07,12,14.40
2017,05,27,07,13,14.50
2017,05,27,07,14,14.60
2017,05,27,07,15,14.70
2017,05,27,07,16,14.70
2017,05,27,07,17,14.80
2017,05,27,07,18,14.90
2017,05,27,07,19,15.00
2017,05,27,07,20,15.10
2017,05,27,07,21,15.10
2017,05,27,07,22,15.20
2017,05,27,07,23,15.30
2017,05,27,07,24,15.40
2017,05,27,07,25,15.50
2017,05,27,07,26,15.50
2017,05,27,07,27,15.60
2017,05,27,07,28,15.70
2017,05,27,07,29,15.70
2017,05,27,07,30,15.70
2017,05,27,07,31,15.70
2017,05,27,07,32,15.70
2017,05,27,07,33,15.80
2017,05,27,07,34,15.80
2017,05,27,07,35,15.80
2017,05,27,07,36,15.80
2017,05,27,07,37,15.90
2017,05,27,07,38,15.90
2017,05,27,07,39,15.90
2017,05,27,07,40,16.00
2017,05,27,07,41,16.00
2017,05,27,07,42,16.10
2017,05,27,07,43,16.10
2017,05,27,07,44,16.10
2017,05,27,07,45,16.20
2017,05,27,07,46,16.20
2017,05,27,07,47,16.30
2017,05,27,07,48,16.30
2017,05,27,07,49,16.30
2017,05,27,07,50,16.40
2017,05,27,07,51,16.40
2017,05,27,07,52,16.40
2017,05,27,07,53,16.40
2017,05,27,07,54,16.40
2017,05,27,07,55,16.40
2017,05,27,07,56,16.50
2017,05,27,07,57,16.50
2017,05,27,07,58,16.50
2017,05,27,07,59,16.60
2017,05,27,08,00,16.60
2017,05,27,08,01,16.70
2017,05,27,08,02,16.70
2017,05,27,08,03,16.70
2017,05,27,08,04,16.80
2017,05,27,08,05,16.80
2017,05,27,08,06,16.80
2017,05,27,08,07,16.90
2017,05,27,08,08,16.90
2017,05,27,08,09,16.90
2017,05,27,08,10,16.90
2017,05,27,08,11,16.80
2017,05,27,08,12,16.70
2017,05,27,08,13,16.70
2017,05,27,08,14,16.60
2017,05,27,08,15,16.60
2017,05,27,08,16,16.60
2017,05,27,08,17,16.60
2017,05,27,08,18,16.60
2017,05,27,08,19,16.60
2017,05,27,08,20,16.60
2017,05,27,08,21,16.60
2017,05,27,08,22,16.70
2017,05,27,08,23,16.70
2017,05,27,08,24,16.80
2017,05,27,08,25,16.80
2017,05,27,08,26,17.00
2017,05,27,08,27,17.00
2017,05,27,08,28,17.00
2017,05,27,08,29,17.10
2017,05,27,08,30,17.20
2017,05,27,08,31,17.20
2017,05,27,08,32,17.20
2017,05,27,08,33,17.20
2017,05,27,08,34,17.20
2017,05,27,08,35,17.20
2017,05,27,08,36,17.30
2017,05,27,08,37,17.30
2017,05,27,08,38,17.30
2017,05,27,08,39,17.40
2017,05,27,08,40,17.40
2017,05,27,08,41,17.50
2017,05,27,08,42,17.50
2017,05,27,08,43,17.50
2017,05,27,08,44,17.60
2017,05,27,08,45,17.60
2017,05,27,08,46,17.60
2017,05,27,08,47,17.60
2017,05,27,08,48,17.60
2017,05,27,08,49,17.60
2017,05,27,08,50,17.60
2017,05,27,08,51,17.60
2017,05,27,08,52,17.60
2017,05,27,08,53,17.60
2017,05,27,08,54,17.60
2017,05,27,08,55,17.60
2017,05,27,08,56,17.60
2017,05,27,08,57,17.70
2017,05,27,08,58,17.70
2017,05,27,08,59,17.70
2017,05,27,09,00,17.80
2017,05,27,09,01,17.80
2017,05,27,09,02,17.80
2017,05,27,09,03,17.90
2017,05,27,09,04,17.90
2017,05,27,09,05,17.90
2017,05,27,09,06,17.90
2017,05,27,09,07,18.00
2017,05,27,09,08,18.00
2017,05,27,09,09,18.00
2017,05,27,09,10,18.00
2017,05,27,09,11,18.10
2017,05,27,09,12,18.10
2017,05,27,09,13,18.20
2017,05,27,09,14,18.30
2017,05,27,09,15,18.30
2017,05,27,09,16,18.40
2017,05,27,09,17,18.50
2017,05,27,09,18,18.60
2017,05,27,09,19,18.60
2017,05,27,09,20,18.70
2017,05,27,09,21,18.70
2017,05,27,09,22,18.70
2017,05,27,09,23,18.70
2017,05,27,09,24,18.70
2017,05,27,09,25,18.80
2017,05,27,09,26,18.80
2017,05,27,09,27,18.80
2017,05,27,09,28,18.80
2017,05,27,09,29,18.90
2017,05,27,09,30,18.90
2017,05,27,09,31,19.00
2017,05,27,09,32,19.10
2017,05,27,09,33,19.10
2017,05,27,09,34,19.20
2017,05,27,09,35,19.20
2017,05,27,09,36,19.20
2017,05,27,09,37,19.20
2017,05,27,09,38,19.20
2017,05,27,09,39,19.30
2017,05,27,09,40,19.30
2017,05,27,09,41,19.30
2017,05,27,09,42,19.40
2017,05,27,09,43,19.40
2017,05,27,09,44,19.50
2017,05,27,09,45,19.60
2017,05,27,09,46,19.70
2017,05,27,09,47,19.70
2017,05,27,09,48,19.70
2017,05,27,09,49,19.70
2017,05,27,09,50,19.80
2017,05,27,09,51,19.80
2017,05,27,09,52,19.70
2017,05,27,09,53,19.70
2017,05,27,09,54,19.70
2017,05,27,09,55,19.70
2017,05,27,09,56,19.60
2017,05,27,09,57,19.50
2017,05,27,09,58,19.50
2017,05,27,09,59,19.40
2017,05,27,10,00,19.50
2017,05,27,10,01,19.50
2017,05,27,10,02,19.50
2017,05,27,10,03,19.50
2017,05,27,10,04,19.40
2017,05,27,10,05,19.40
2017,05,27,10,06,19.30
2017,05,27,10,07,19.30
2017,05,27,10,08,19.30
2017,05,27,10,09,19.30
2017,05,27,10,10,19.30
2017,05,27,10,11,19.30
2017,05,27,10,12,19.30
2017,05,27,10,13,19.30
2017,05,27,10,14,19.40
2017,05,27,10,15,19.40
2017,05,27,10,16,19.40
2017,05,27,10,17,19.40
2017,05,27,10,18,19.30
2017,05,27,10,19,19.30
2017,05,27,10,20,19.30
2017,05,27,10,21,19.30
2017,05,27,10,22,19.30
2017,05,27,10,23,19.30
2017,05,27,10,24,19.30
2017,05,27,10,25,19.30
2017,05,27,10,26,19.30
2017,05,27,10,27,19.30
2017,05,27,10,28,19.30
2017,05,27,10,29,19.20
2017,05,27,10,30,19.30
2017,05,27,10,31,19.30
2017,05,27,10,32,19.40
2017,05,27,10,33,19.40
2017,05,27,10,34,19.40
2017,05,27,10,35,19.40
2017,05,27,10,36,19.30
2017,05,27,10,37,19.30
2017,05,27,10,38,19.30
2017,05,27,10,39,19.30
2017,05,27,10,40,19.30
2017,05,27,10,41,19.40
2017,05,27,10,42,19.40
2017,05,27,10,43,19.40
2017,05,27,10,44,19.50
2017,05,27,10,45,19.60
2017,05,27,10,46,19.60
2017,05,27,10,47,19.70
2017,05,27,10,48,19.70
2017,05,27,10,49,19.60
2017,05,27,10,50,19.60
2017,05,27,10,51,19.60
2017,05,27,10,52,19.60
2017,05,27,10,53,19.50
2017,05,27,10,54,19.40
2017,05,27,10,55,19.20
2017,05,27,10,56,19.20
2017,05,27,10,57,19.10
2017,05,27,10,58,19.20
2017,05,27,10,59,19.20
2017,05,27,11,00,19.20
2017,05,27,11,01,19.10
2017,05,27,11,02,19.10
2017,05,27,11,03,19.10
2017,05,27,11,04,19.10
2017,05,27,11,05,19.10
2017,05,27,11,06,19.20
2017,05,27,11,07,19.20
2017,05,27,11,08,19.30
2017,05,27,11,09,19.30
2017,05,27,11,10,19.30
2017,05,27,11,11,19.40
2017,05,27,11,12,19.50
2017,05,27,11,13,19.60
2017,05,27,11,14,19.70
2017,05,27,11,15,19.70
2017,05,27,11,16,19.80
2017,05,27,11,17,19.80
2017,05,27,11,18,19.90
2017,05,27,11,19,19.90
2017,05,27,11,20,19.90
2017,05,27,11,21,19.90
2017,05,27,11,22,20.00
2017,05,27,11,23,20.00
2017,05,27,11,24,20.10
2017,05,27,11,25,20.10
2017,05,27,11,26,20.10
2017,05,27,11,27,20.10
2017,05,27,11,28,20.20
2017,05,27,11,29,20.30
2017,05,27,11,30,20.50
2017,05,27,11,31,20.60
2017,05,27,11,32,20.70
2017,05,27,11,33,20.80
2017,05,27,11,34,20.80
2017,05,27,11,35,20.70
2017,05,27,11,36,20.70
2017,05,27,11,37,20.60
2017,05,27,11,38,20.60
2017,05,27,11,39,20.50
2017,05,27,11,40,20.50
2017,05,27,11,41,20.50
2017,05,27,11,42,20.50
2017,05,27,11,43,20.50
2017,05,27,11,44,20.60
2017,05,27,11,45,20.70
2017,05,27,11,46,20.80
2017,05,27,11,47,20.80
2017,05,27,11,48,20.90
2017,05,27,11,49,21.00
2017,05,27,11,50,21.10
2017,05,27,11,51,21.20
2017,05,27,11,52,21.20
2017,05,27,11,53,21.30
2017,05,27,11,54,21.30
2017,05,27,11,55,21.30
2017,05,27,11,56,21.30
2017,05,27,11,57,21.30
2017,05,27,11,58,21.30
2017,05,27,11,59,21.20
2017,05,27,12,00,21.20
2017,05,27,12,01,21.10
2017,05,27,12,02,21.20
2017,05,27,12,03,21.20
2017,05,27,12,04,21.20
2017,05,27,12,05,21.20
2017,05,27,12,06,21.30
2017,05,27,12,07,21.30
2017,05,27,12,08,21.40
2017,05,27,12,09,21.50
2017,05,27,12,10,21.60
2017,05,27,12,11,21.70
2017,05,27,12,12,21.70
2017,05,27,12,13,21.80
2017,05,27,12,14,21.80
2017,05,27,12,15,21.90
2017,05,27,12,16,22.00
2017,05,27,12,17,22.00
2017,05,27,12,18,22.10
2017,05,27,12,19,22.20
2017,05,27,12,20,22.30
2017,05,27,12,21,22.30
2017,05,27,12,22,22.40
2017,05,27,12,23,22.40
2017,05,27,12,24,22.50
2017,05,27,12,25,22.60
2017,05,27,12,26,22.70
2017,05,27,12,27,22.80
2017,05,27,12,28,22.90
2017,05,27,12,29,23.00
2017,05,27,12,30,23.10
2017,05,27,12,31,23.10
2017,05,27,12,32,23.10
2017,05,27,12,33,23.10
2017,05,27,12,34,23.10
2017,05,27,12,35,23.10
2017,05,27,12,36,23.00
2017,05,27,12,37,22.90
2017,05,27,12,38,22.90
2017,05,27,12,39,22.80
2017,05,27,12,40,22.80
2017,05,27,12,41,22.80
2017,05,27,12,42,22.70
2017,05,27,12,43,22.60
2017,05,27,12,44,22.40
2017,05,27,12,45,22.30
2017,05,27,12,46,22.10
2017,05,27,12,47,22.00
2017,05,27,12,48,22.00
2017,05,27,12,49,21.90
2017,05,27,12,50,21.90
2017,05,27,12,51,21.90
2017,05,27,12,52,21.90
2017,05,27,12,53,21.90
2017,05,27,12,54,21.90
2017,05,27,12,55,21.90
2017,05,27,12,56,21.90
2017,05,27,12,57,21.90
2017,05,27,12,58,22.00
2017,05,27,12,59,22.00
2017,05,27,13,00,22.00
2017,05,27,13,01,21.90
2017,05,27,13,02,21.90
2017,05,27,13,03,21.90
2017,05,27,13,04,21.80
2017,05,27,13,05,21.80
2017,05,27,13,06,21.70
2017,05,27,13,07,21.70
2017,05,27,13,08,21.70
2017,05,27,13,09,21.70
2017,05,27,13,10,21.70
2017,05,27,13,11,21.70
2017,05,27,13,12,21.70
2017,05,27,13,13,21.70
2017,05,27,13,14,21.80
2017,05,27,13,15,21.70
2017,05,27,13,16,21.70
2017,05,27,13,17,21.70
2017,05,27,13,18,21.60
2017,05,27,13,19,21.60
2017,05,27,13,20,21.70
2017,05,27,13,21,21.70
2017,05,27,13,22,21.70
2017,05,27,13,23,21.70
2017,05,27,13,24,21.70
2017,05,27,13,25,21.70
2017,05,27,13,26,21.70
2017,05,27,13,27,21.70
2017,05,27,13,28,21.70
2017,05,27,13,29,21.70
2017,05,27,13,30,21.70
2017,05,27,13,31,21.80
2017,05,27,13,32,21.80
2017,05,27,13,33,21.90
2017,05,27,13,34,22.00
2017,05,27,13,35,22.10
2017,05,27,13,36,22.10
2017,05,27,13,37,22.10
2017,05,27,13,38,22.20
2017,05,27,13,39,22.30
2017,05,27,13,40,22.40
2017,05,27,13,41,22.60
2017,05,27,13,42,22.70
2017,05,27,13,43,22.80
2017,05,27,13,44,22.80
2017,05,27,13,45,22.80
2017,05,27,13,46,22.90
2017,05,27,13,47,22.90
2017,05,27,13,48,22.90
2017,05,27,13,49,22.90
2017,05,27,13,50,22.90
2017,05,27,13,51,22.90
2017,05,27,13,52,23.00
2017,05,27,13,53,23.00
2017,05,27,13,54,23.00
2017,05,27,13,55,23.00
2017,05,27,13,56,23.00
2017,05,27,13,57,23.00
2017,05,27,13,58,23.10
2017,05,27,13,59,23.10
2017,05,27,14,00,23.20
2017,05,27,14,01,23.20
2017,05,27,14,02,23.30
2017,05,27,14,03,23.40
2017,05,27,14,04,23.40
2017,05,27,14,05,23.40
2017,05,27,14,06,23.40
2017,05,27,14,07,23.30
2017,05,27,14,08,23.30
2017,05,27,14,09,23.40
2017,05,27,14,10,23.50
2017,05,27,14,11,23.50
2017,05,27,14,12,23.50
2017,05,27,14,13,23.60
2017,05,27,14,14,23.60
2017,05,27,14,15,23.70
2017,05,27,14,16,23.70
2017,05,27,14,17,23.80
2017,05,27,14,18,23.90
2017,05,27,14,19,23.90
2017,05,27,14,20,23.90
2017,05,27,14,21,23.90
2017,05,27,14,22,23.90
2017,05,27,14,23,24.00
2017,05,27,14,24,24.00
2017,05,27,14,25,23.90
2017,05,27,14,26,23.90
2017,05,27,14,27,23.90
2017,05,27,14,28,23.80
2017,05,27,14,29,23.80
2017,05,27,14,30,23.70
2017,05,27,14,31,23.70
2017,05,27,14,32,23.70
2017,05,27,14,33,23.70
2017,05,27,14,34,23.70
2017,05,27,14,35,23.70
2017,05,27,14,36,23.70
2017,05,27,14,37,23.70
2017,05,27,14,38,23.70
2017,05,27,14,39,23.80
2017,05,27,14,40,23.80
2017,05,27,14,41,23.80
2017,05,27,14,42,23.80
2017,05,27,14,43,23.90
2017,05,27,14,44,23.90
2017,05,27,14,45,23.90
2017,05,27,14,46,23.90
2017,05,27,14,47,24.00
2017,05,27,14,48,24.00
2017,05,27,14,49,24.00
2017,05,27,14,50,24.10
2017,05,27,14,51,24.10
2017,05,27,14,52,24.20
2017,05,27,14,53,24.20
2017,05,27,14,54,24.30
2017,05,27,14,55,24.30
2017,05,27,14,56,24.40
2017,05,27,14,57,24.40
2017,05,27,14,58,24.40
2017,05,27,14,59,24.40
2017,05,27,15,00,24.40
2017,05,27,15,01,24.30
2017,05,27,15,02,24.30
2017,05,27,15,03,24.30
2017,05,27,15,04,24.30
2017,05,27,15,05,24.30
2017,05,27,15,06,24.30
2017,05,27,15,07,24.30
2017,05,27,15,08,24.30
2017,05,27,15,09,24.30
2017,05,27,15,10,24.30
2017,05,27,15,11,24.30
2017,05,27,15,12,24.30
2017,05,27,15,13,24.30
2017,05,27,15,14,24.30
2017,05,27,15,15,24.30
2017,05,27,15,16,24.30
2017,05,27,15,17,24.40
2017,05,27,15,18,24.40
2017,05,27,15,19,24.40
2017,05,27,15,20,24.50
2017,05,27,15,21,24.60
2017,05,27,15,22,24.60
2017,05,27,15,23,24.70
2017,05,27,15,24,24.70
2017,05,27,15,25,24.70
2017,05,27,15,26,24.70
2017,05,27,15,27,24.80
2017,05,27,15,28,24.80
2017,05,27,15,29,24.80
2017,05,27,15,30,24.90
2017,05,27,15,31,25.00
2017,05,27,15,32,25.10
2017,05,27,15,33,25.10
2017,05,27,15,34,25.20
2017,05,27,15,35,25.30
2017,05,27,15,36,25.40
2017,05,27,15,37,25.40
2017,05,27,15,38,25.50
2017,05,27,15,39,25.50
2017,05,27,15,40,25.50
2017,05,27,15,41,25.50
2017,05,27,15,42,25.50
2017,05,27,15,43,25.60
2017,05,27,15,44,25.60
2017,05,27,15,45,25.70
2017,05,27,15,46,25.70
2017,05,27,15,47,25.80
2017,05,27,15,48,25.80
2017,05,27,15,49,25.90
2017,05,27,15,50,25.90
2017,05,27,15,51,25.90
2017,05,27,15,52,25.90
2017,05,27,15,53,25.90
2017,05,27,15,54,25.90
2017,05,27,15,55,25.90
2017,05,27,15,56,25.90
2017,05,27,15,57,25.90
2017,05,27,15,58,25.90
2017,05,27,15,59,25.90
2017,05,27,16,00,25.90
2017,05,27,16,01,25.90
2017,05,27,16,02,25.90
2017,05,27,16,03,25.80
2017,05,27,16,04,25.80
2017,05,27,16,05,25.70
2017,05,27,16,06,25.60
2017,05,27,16,07,25.50
2017,05,27,16,08,25.40
2017,05,27,16,09,25.40
2017,05,27,16,10,25.30
2017,05,27,16,11,25.20
2017,05,27,16,12,25.00
2017,05,27,16,13,24.90
2017,05,27,16,14,24.90
2017,05,27,16,15,24.80
2017,05,27,16,16,24.80
2017,05,27,16,17,24.80
2017,05,27,16,18,24.80
2017,05,27,16,19,24.80
2017,05,27,16,20,24.80
2017,05,27,16,21,24.80
2017,05,27,16,22,24.90
2017,05,27,16,23,24.90
2017,05,27,16,24,24.90
2017,05,27,16,25,25.00
2017,05,27,16,26,25.00
2017,05,27,16,27,25.00
2017,05,27,16,28,25.00
2017,05,27,16,29,25.00
2017,05,27,16,30,25.00
2017,05,27,16,31,25.00
2017,05,27,16,32,25.00
2017,05,27,16,33,25.10
2017,05,27,16,34,25.10
2017,05,27,16,35,25.10
2017,05,27,16,36,25.20
2017,05,27,16,37,25.30
2017,05,27,16,38,25.30
2017,05,27,16,39,25.40
2017,05,27,16,40,25.40
2017,05,27,16,41,25.50
2017,05,27,16,42,25.60
2017,05,27,16,43,25.60
2017,05,27,16,44,25.60
2017,05,27,16,45,25.60
2017,05,27,16,46,25.70
2017,05,27,16,47,25.70
2017,05,27,16,48,25.60
2017,05,27,16,49,25.60
2017,05,27,16,50,25.50
2017,05,27,16,51,25.40
2017,05,27,16,52,25.30
2017,05,27,16,53,25.20
2017,05,27,16,54,25.10
2017,05,27,16,55,25.10
2017,05,27,16,56,25.00
2017,05,27,16,57,25.00
2017,05,27,16,58,24.90
2017,05,27,16,59,24.90
2017,05,27,17,00,24.90
2017,05,27,17,01,24.90
2017,05,27,17,02,24.90
2017,05,27,17,03,24.90
2017,05,27,17,04,25.00
2017,05,27,17,05,25.10
2017,05,27,17,06,25.10
2017,05,27,17,07,25.10
2017,05,27,17,08,25.10
2017,05,27,17,09,25.10
2017,05,27,17,10,25.00
2017,05,27,17,11,24.90
2017,05,27,17,12,24.70
2017,05,27,17,13,24.60
2017,05,27,17,14,24.60
2017,05,27,17,15,24.50
2017,05,27,17,16,24.50
2017,05,27,17,17,24.40
2017,05,27,17,18,24.40
2017,05,27,17,19,24.30